{"data":{"norad_id":48682,"intl_designator":"2021-044AW","name":"STARLINK-2743","alt_names":[],"object_type":"PAYLOAD","status":"ACTIVE","operator":null,"country":"US","launch_date":"2021-05-26","launch_site_code":"AFETR","launch_vehicle":null,"mission":null,"orbit_class":"UNKNOWN","rcs_meters":null,"size_class":null,"mass_kg":null,"dimensions":null,"purposes":["comms"],"wikipedia_slug":null,"has_3d_model":false,"image_url":null,"decayed_at":null,"tle_current":{"epoch":"2026-05-25T04:50:13.519104Z","epoch_age_seconds":64446,"freshness":"FRESH","line1":"1 48682U 21044AW  26145.20154536  .00000753  00000+0  36022-4 0  9994","line2":"2 48682  53.1609  69.1452 0001175  89.1921 270.9215 15.31713926276228","mean_motion":15.31713926,"eccentricity":0.0001175,"inclination_deg":53.1609,"raan_deg":69.1452,"arg_perigee_deg":89.1921,"mean_anomaly_deg":270.9215,"bstar":3.6022e-5,"rev_number":27622,"period_min":94.012333214238,"perigee_km":469.89374468958,"apogee_km":471.50322102805,"semimajor_km":6848.8354828588,"source":"CELESTRAK","updated_at":"2026-05-25T13:38:16.760913Z"}}}